Location: Ponte Storto
(45.7333°N, 11.7167°E)
Time: 22:08:28
(UTC+00:00)

Daily predictions for brighter satellites

Satellite Brightness Start Highest point End
(mag) Time Altitude Azimuth Time Altitude Azimuth Time Altitude Azimuth
NOSS 3-2 (A) 4.2 17:22:03 10° NW 17:29:27 66° NE 17:37:49 10° SE
Meteor 1-21 4.4 17:31:37 10° NNW 17:37:14 81° W 17:42:49 10° S
Cosmos 2151 Rocket 4.4 17:34:45 10° SSE 17:38:40 31° E 17:42:37 10° NNE
Lacrosse 5 rocket 3.6 17:36:38 10° NW 17:39:44 19° N 17:42:57 10° NE
Cosmos 1975 Rocket 3.2 17:36:12 10° N 17:40:31 80° W 17:44:50 10° S
HJ-1C 4.1 17:41:05 10° SE 17:44:04 33° ENE 17:47:04 10° N
COSMO-SKYMED 1 3.3 17:45:55 10° N 17:50:12 58° WNW 17:54:27 10° SSW
Shenzhou-11 Module 3.5 17:50:01 10° S 17:50:51 12° SSE 17:51:33 10° SE
Ariane Rocket 4.1 17:48:31 10° ESE 17:52:38 25° ENE 17:56:44 10° N
Nadezhda 4 Rocket 4.2 17:47:27 10° N 17:53:19 46° ENE 17:59:11 10° SSE
H-2A R/B 2.2 17:48:31 10° SE 17:53:21 52° ENE 17:58:22 10° N
SJ 16-02 4.3 17:52:52 10° W 17:55:27 15° NW 17:58:03 10° NNW
Exosat Rocket 4.1 17:52:41 10° S 17:57:35 34° ESE 18:02:04 10° NE
Cosmos 2263 Rocket 3.9 17:53:39 10° WSW 17:58:43 35° NW 18:03:50 10° NNE
USA 116 3.6 17:56:45 10° NNE 18:00:27 70° ESE 18:04:37 10° S
COSMOS 2406 4.4 17:57:46 10° N 18:02:22 25° NE 18:05:50 15° E
Cosmos 1844 Rocket 2.6 17:57:26 10° SSW 18:02:55 65° ESE 18:08:28 10° NNE
Cosmos 1072 Rocket 4.5 17:56:45 10° S 18:03:00 80° E 18:09:24 10° N
Cosmos 372 Rocket 4.3 17:59:34 10° SSW 18:04:48 71° WNW 18:10:01 10° NNE
Cosmos 1707 3.0 18:01:49 10° NNW 18:05:38 72° W 18:09:26 10° S
Cosmos 1626 3.8 18:04:41 10° NNE 18:07:02 16° ENE 18:07:28 16° ENE
Cosmos 2278 Rocket 4.0 18:10:00 11° ENE 18:10:00 11° ENE 18:10:24 10° ENE
NOSS 3-2 (C) 4.1 18:00:15 10° NW 18:07:43 71° NE 18:16:08 10° SE
CZ-2C R/B 3.7 18:07:26 10° SSW 18:07:59 10° SSW 18:08:33 10° S
Cosmos 1844 3.7 18:04:47 10° S 18:10:22 60° ESE 18:15:55 10° NNE
Cosmos 2034 Rocket 4.0 18:04:17 10° S 18:10:32 61° E 18:16:45 10° NNE
NOSS 3-4 (A) 3.9 18:06:35 10° S 18:11:53 36° ESE 18:17:27 10° NE
ISS -2.5 18:08:49 10° W 18:11:59 36° NNW 18:14:49 12° NE
NOSS 3-4 (C) 3.9 18:06:43 10° S 18:12:00 35° ESE 18:17:33 10° NE
USA 186 2.8 18:11:04 20° ESE 18:12:27 28° ENE 18:15:19 10° N
Meteor 2-5 Rocket 4.3 18:08:16 10° N 18:13:32 37° ENE 18:18:15 13° SE
Meteor 1-12 Rocket 4.4 18:08:05 10° S 18:13:58 87° W 18:19:47 10° N
Lacrosse 4 Rocket 3.6 18:14:06 10° NNE 18:15:21 11° NE 18:16:33 10° NE
Cosmos 1300 Rocket 3.8 18:14:53 10° SSW 18:19:17 75° W 18:23:45 10° N
Okean 1 Rocket 3.5 18:18:19 10° SSE 18:22:31 40° E 18:26:43 10° NNE
Resurs 01 Rocket 3.4 18:25:52 16° ENE 18:26:01 16° ENE 18:28:40 10° NNE
Cosmos 2298 Rocket 4.4 18:20:46 10° SSW 18:26:04 69° WNW 18:31:25 10° NNE
SL-14 R/B 4.4 18:22:58 10° NNE 18:26:12 24° ENE 18:26:27 24° ENE
CENTAUR R/B 3.2 18:18:43 10° NW 18:26:50 83° NE 18:34:46 14° SE
Cosmos 1833 Rocket 3.8 18:23:08 10° N 18:27:57 28° NE 18:30:12 22° E
CSL-04 Rocket 4.1 18:26:05 10° S 18:31:28 64° WSW 18:36:59 10° NNW
Cosmos 1766 3.6 18:29:48 10° SSE 18:33:31 43° E 18:37:16 10° NNE
Okean 2 Rocket 4.0 18:29:30 10° SSW 18:33:53 52° WNW 18:38:15 10° N
YAOGAN 1 4.3 18:30:18 10° SSW 18:34:14 34° W 18:38:13 10° NNW
ATLAS 2AS CENTAUR R/B 3.1 18:26:43 10° SSW 18:34:19 53° ESE 18:41:55 10° NE
Cosmos 1025 Rocket 3.9 18:30:45 10° NNW 18:35:02 53° W 18:39:18 10° S
Cosmos 1634 Rocket 4.2 18:32:31 10° SSE 18:38:18 45° E 18:44:09 10° NNE
ATLAS 3B R/B 3.3 18:32:32 10° NNW 18:39:00 42° NE 18:42:35 25° E
SPOT 3 Rocket 4.3 18:40:10 28° E 18:41:27 32° ENE 18:45:58 10° N
Abrixas rocket 1.7 18:39:10 10° WNW 18:42:00 72° SSW 18:42:11 69° SSE
CREW DRAGON DEMO-1 DEB 2.7 18:40:55 10° WNW 18:43:56 76° SSW 18:44:16 65° SSE
Cosmos 1536 Rocket 4.2 18:40:27 10° NNW 18:44:50 57° W 18:49:12 10° S
Cosmos 1125 Rocket 3.7 18:41:24 10° SSW 18:46:42 73° WNW 18:52:03 10° NNE
EP 2 4.4 18:45:06 10° SW 18:48:06 88° SE 18:48:34 60° NE
Resurs 1-3 4.2 18:48:54 35° ENE 18:49:12 35° ENE 18:53:13 10° N
SJ-6B 2.6 18:48:31 46° SE 18:49:24 63° ENE 18:53:09 10° N
Cosmos 1892 Rocket 4.2 18:47:40 10° N 18:51:24 34° ENE 18:51:24 34° ENE
CZ-4 R/B 4.3 18:49:04 10° SW 18:52:02 19° W 18:54:59 10° NW
Cosmos 2195 Rocket 4.4 18:48:59 10° N 18:55:14 75° E 19:00:07 17° SSE
Cosmos 1627 Rocket 4.5 18:50:27 10° N 18:56:52 70° E 19:01:24 20° SSE
Cosmos 1674 3.3 18:53:26 10° NNW 18:57:13 55° W 19:00:17 15° S
Cosmos 2285 Rocket 4.1 18:51:05 10° SSW 18:57:23 81° WNW 19:03:48 10° NNE
Cosmos 2026 Rocket 4.0 18:51:45 10° N 18:58:07 68° E 19:02:16 23° SSE
Cosmos 1092 Rocket 3.9 18:52:06 10° N 18:58:18 87° E 19:04:17 11° S
MOS 1 Rocket 4.3 18:59:01 10° N 19:03:10 43° WNW 19:07:13 10° SW
FREGAT/IRIS 4.3 19:04:41 23° NNW 19:04:41 23° NNW 19:05:51 10° NNW
Cosmos 1428 Rocket 4.4 19:00:24 10° N 19:06:41 74° E 19:10:06 28° SSE
TSX-5 4.0 19:04:51 10° SSW 19:08:40 83° WNW 19:13:38 10° NNE
ARGOS 4.1 19:04:20 10° S 19:09:28 46° W 19:14:39 10° NNW
CZ-2C R/B 2.7 19:07:55 10° NNE 19:13:32 86° WNW 19:19:09 10° SSW
Cosmos 1340 Rocket 3.4 19:15:11 44° NNE 19:15:11 44° NNE 19:18:01 10° NNE
Cosmos 2279 Rocket 4.0 19:12:59 40° SE 19:14:48 54° E 19:20:53 10° NNE
Cosmos 1733 3.5 19:13:48 27° SSW 19:15:44 66° W 19:19:33 10° N
MOS 1 4.4 19:13:05 23° S 19:16:45 76° WSW 19:22:29 10° NNW
Lacrosse 5 rocket 3.1 19:16:30 10° NW 19:20:10 24° NNE 19:20:43 24° NNE
Cosmos 2082 Rocket 2.8 19:15:53 10° NNW 19:21:09 39° NE 19:21:17 39° ENE
Cosmos 2098 Rocket 4.3 19:15:03 10° N 19:21:19 42° ENE 19:21:19 42° ENE
DMSP B5D2-2 4.1 19:18:02 10° NNE 19:23:22 81° WNW 19:28:38 10° SSW
BREEZE-M DEB (TANK) 4.3 19:20:25 10° W 19:24:07 40° SSW 19:27:36 28° SSE
BREEZE-M R/B 3.6 19:16:05 10° W 19:24:13 65° NNW 19:24:25 64° N
OBJECT-B 2.7 19:28:48 27° NNW 19:28:48 27° NNW 19:30:28 10° NNW
Cosmos 2142 Rocket 4.3 19:24:37 25° S 19:28:30 78° E 19:34:44 10° N
Ariane Rocket 3.9 19:28:06 20° SSW 19:31:19 46° W 19:36:14 10° NNW
H-2A R/B 4.4 19:29:24 10° SW 19:33:08 21° W 19:36:58 10° NW
Milstar 3 Cent rocket 4.3 19:30:25 10° SW 19:32:39 13° SSW 19:32:39 13° SSW
USA 234 4.4 19:38:13 26° S 19:38:13 26° S 19:41:07 10° SSW
Terra 4.3 19:42:51 11° NNE 19:42:51 11° NNE 19:43:15 10° NNE
Cosmos 1626 3.6 19:39:01 10° NNW 19:42:02 35° WNW 19:42:02 35° WNW
Okean 1-7 Rocket 4.2 19:38:21 10° N 19:41:51 52° N 19:41:51 52° N
USA 186 4.5 19:42:34 16° WSW 19:43:12 17° W 19:45:24 10° NW
COSMOS 2406 3.4 19:41:32 10° NNW 19:47:10 64° WSW 19:47:56 58° SSW
ISS -1.1 19:46:20 10° WNW 19:47:46 20° NW 19:47:46 20° NW
Cosmos 2278 Rocket 2.3 19:45:06 10° SSW 19:51:32 68° NNE 19:56:28 10° NNE
Lacrosse 4 Rocket 3.0 19:50:44 10° NNW 19:52:52 29° NNW 19:52:52 29° NNW
Cosmos 909 Rocket 4.0 19:53:36 10° NNW 19:59:54 69° NE 19:59:54 69° NE
Cosmos 2266 Rocket 4.2 19:55:40 10° N 20:00:33 55° NNE 20:00:33 55° NNE
Resurs 01 Rocket 2.8 20:03:26 40° NW 20:03:26 40° NW 20:06:27 10° NNW
NOSS 3-4 (A) 4.2 19:56:48 10° WSW 20:02:33 49° NW 20:08:46 10° NNE
NOSS 3-4 (C) 4.2 19:56:54 10° WSW 20:02:39 49° NW 20:08:52 10° NNE
Meteor 2-19 Rocket 4.4 19:57:26 10° NNW 20:03:33 76° W 20:03:47 75° WSW
Cosmos 1833 Rocket 3.2 20:06:42 10° NW 20:11:54 54° W 20:11:54 54° W
Cosmos 2251 Rocket 4.2 20:09:43 10° NNW 20:13:44 51° NNW 20:13:44 51° NNW
ATLAS 2AS CENTAUR R/B 3.8 20:17:48 10° WSW 20:25:29 49° NW 20:33:04 10° NNE
ATLAS 3B R/B 3.1 20:23:13 10° NW 20:29:50 54° WSW 20:29:50 54° WSW
Lacrosse 5 rocket 4.4 20:55:28 10° NW 20:56:20 15° NW 20:56:20 15° NW
Cosmos 2082 Rocket 4.0 21:00:06 10° NW 21:03:08 27° WNW 21:03:08 27° WNW
